Welcome to SceneSat - the place that connects the many musical aspects of the scene to the rest of the world.

Current time: 2018-06-23 14:03
19 listeners from 13 countries.
|
Blue Awakening - Space Flower [04:58] at 14:05:02
SHOW INFORMATION
SceneBits with Hazel[ download ] [ .cuefile ]
Broadcasted 2010-01-30 20:00 - 2010-01-31 00:28
It is time to present the newest tracks yet again. Tune in to hear some of the newest additions and other weird stuff that Hazel might do.
Show playlist
When What
2010-01-30 20:00:20 (00:00) Hazel - SceneBits Intro
2010-01-30 20:01:17 (00:57) daXX - Arkanoid - Techhouse RMX
2010-01-30 20:05:09 (04:49) E-mantra - Crop Circles
2010-01-30 20:14:44 (14:24) PsykoElectro - Psyko goes Crazy
2010-01-30 20:21:12 (20:52) Magic & Witchcraft - Superstructure
2010-01-30 20:29:26 (29:06) Cybernetika - Vaporized
2010-01-30 20:37:14 (36:54) SyTeQ - My Blood
2010-01-30 20:40:37 (40:17) Phr4kture - Unreal Tournament Forgone Rejuvenation OC ReMix
2010-01-30 20:47:50 (47:30) Dreamtime - Typhoon
2010-01-30 20:53:57 (53:37) ST Arts - Reach for the Skies
2010-01-30 21:00:20 (60:00) Amok - Wannabe Trance
2010-01-30 21:02:38 (62:18) CZ-Tunes - The Vice of Miami (Jan Hammer Edit)
2010-01-30 21:07:14 (66:54) paniq - Heavy Working Robot as requested by addie
2010-01-30 21:11:54 (71:34) X-Ceed - Witchcraft
2010-01-30 21:14:35 (74:15) Firestorm - Doomsday
2010-01-30 21:19:56 (79:36) Shamen - Galaxy M12
2010-01-30 21:23:09 (82:49) Ganja - Relic (Part1)
2010-01-30 21:26:27 (86:07) Ganja - Relic (Part2)
2010-01-30 21:31:31 (91:11) Purple Motion - The 2nd Reality
2010-01-30 21:38:34 (98:14) Herr Weltschaft - Kasparov
2010-01-30 21:49:47 (109:27) paniq - sopho
2010-01-30 21:53:17 (112:57) willbe - Retrofitting for Mrs Connor
2010-01-30 21:58:21 (118:01) Puryx - Elevated
2010-01-30 22:02:15 (121:55) Firefox & Tip - A Final Hyperbase
2010-01-30 22:08:00 (127:40) Irvin - Summer Encounter as requested by mlm
2010-01-30 22:11:58 (131:38) cTrix - Syntax Party 2009 Invite
2010-01-30 22:15:43 (135:23) PowerTrace - Stardust title(HardCopy 2010)
2010-01-30 22:20:20 (140:00) Radix - Weather Girl (Malmen Remix)
2010-01-30 22:22:14 (141:54) Travolta - Condom Corruption
2010-01-30 22:26:00 (145:40) Wojciech Wardynski (Praiser) - Breitbandkatze (tune 2)
2010-01-30 22:28:37 (148:17) Marc - Mnemonics
2010-01-30 22:33:01 (152:41) 4mat - Phantasmagoria as requested by Qcoder00
2010-01-30 22:38:32 (158:12) Markus Feil (Druckwelle) - Fart and Burp Song
2010-01-30 22:42:23 (162:03) Gloom - Stargazer
2010-01-30 22:47:31 (167:11) Nale - Nevermind (Vocal) as requested by Hedwig_D
2010-01-30 22:52:16 (171:56) Nale - Again
2010-01-30 22:57:46 (177:26) Shaman - Just me and you (functional cut)
2010-01-30 23:01:45 (181:25) Uncle Tom - Arvids Fredag as requested by Ziphoid
2010-01-30 23:06:18 (185:58) Digital Crusader - Love Will Find You (Original Mix)
2010-01-30 23:14:13 (193:53) Frequenz - Silver Star
2010-01-30 23:20:42 (200:22) Strobo - Dark Room as requested by kraku
2010-01-30 23:21:56 (201:36) Resource X - The Seven Martians
2010-01-30 23:27:09 (206:49) Cyber Space feat. Lars v.d. Hooten - The Robots
2010-01-30 23:31:20 (211:00) Uncle Tom - Poseidon as requested by Ziphoid
2010-01-30 23:36:34 (216:14) JulianeS - I Wait Here 4 You (feat. vlad) as requested by Am0k
2010-01-30 23:41:02 (220:42) Cybernetika - Conquest
2010-01-30 23:48:57 (228:37) Lug00ber & Optimize - Meet The Biots
2010-01-30 23:52:52 (232:32) Irvin - Genesis
2010-01-30 23:56:18 (235:58) Larsec - The Dirt
2010-01-30 23:59:15 (238:55) PsykoElectro - Prototype
2010-01-31 00:06:05 (245:45) AFGIN - Tribute to the Sun
2010-01-31 00:14:39 (254:19) Kellaa Zwo - 1st coffee on a sunday morning
2010-01-31 00:22:48 (262:28) Sunyo - Silent Forest (feat. Anny)
2010-01-31 00:25:28 (265:08) Mr.Lou - Fading Shades (part5)
Disclaimer | Privacy Statement | Terms of Use | Copyright © 2008-2018 SceneSat. All rights reserved. All times are CEST.

Music and info sources

SceneSat features tracks and info gathered from the following sites & communities (detailed credits for each track will be available on its respective info-page):